Terminal Aerodrome Forecast
Issued by NWS

Home | Current Version | Previous Version | Text Only | Print | Product List | Glossary Off
Versions: 1 2 3 4 5 6 7 8 9 10 11 12 13 14

000
FTUS43 KMPX 182300 RRA
TAFRWF
TAF
KRWF 182345Z 1900/1924 13020G30KT P6SM BKN100
     FM191000 16017G27KT P6SM SCT050 BKN100
     FM191500 19015G23KT P6SM VCSH BKN060
     FM192200 23013KT P6SM SCT100=

USA.gov is the U.S. government's official web portal to all federal, state and local government web resources and services.